Wetterdaten: Woche 15.12.08 - 21.12.08 (KW51)
Datum Zeit Temperatur Luftfeuchte Luftdruck Niederschlag Windrichtung Wind
15.12.2008 00:00 -2,6 C 97 % 1004,4 hPa 0,0 l/m N 4,9 km/h (1 Bft)
15.12.2008 01:00 -2,7 C 97 % 1005,1 hPa 0,0 l/m N-NO 4,0 km/h (1 Bft)
15.12.2008 02:00 -2,8 C 97 % 1005,7 hPa 0,0 l/m N-NW 7,1 km/h (2 Bft)
15.12.2008 03:00 -2,7 C 98 % 1005,9 hPa 0,0 l/m N 5,6 km/h (1 Bft)
15.12.2008 04:00 -2,7 C 98 % 1006,3 hPa 0,0 l/m N 5,2 km/h (1 Bft)
15.12.2008 05:00 -2,3 C 98 % 1006,9 hPa 0,0 l/m N-NO 5,6 km/h (1 Bft)
15.12.2008 06:00 -2,0 C 99 % 1007,7 hPa 0,0 l/m N 3,9 km/h (1 Bft)
15.12.2008 07:00 -2,1 C 98 % 1008,3 hPa 0,0 l/m N 4,1 km/h (1 Bft)
15.12.2008 08:00 -1,8 C 99 % 1009,0 hPa 0,0 l/m N-NO 7,6 km/h (2 Bft)
15.12.2008 09:00 -1,2 C 99 % 1009,7 hPa 0,0 l/m N-NO 6,8 km/h (2 Bft)
15.12.2008 10:00 -0,6 C 99 % 1010,4 hPa 0,0 l/m N-NO 5,9 km/h (2 Bft)
15.12.2008 11:00 -0,1 C 97 % 1010,8 hPa 0,0 l/m O-NO 5,6 km/h (1 Bft)
15.12.2008 12:00 0,1 C 96 % 1010,8 hPa 0,0 l/m NO 7,4 km/h (2 Bft)
15.12.2008 13:00 0,4 C 96 % 1010,9 hPa 0,0 l/m N-NO 5,3 km/h (1 Bft)
15.12.2008 14:00 0,7 C 96 % 1010,9 hPa 0,0 l/m NO 8,4 km/h (2 Bft)
15.12.2008 15:00 0,6 C 96 % 1011,2 hPa 0,0 l/m NO 7,0 km/h (2 Bft)
15.12.2008 16:00 0,4 C 97 % 1011,8 hPa 0,0 l/m N 7,5 km/h (2 Bft)
15.12.2008 17:00 0,2 C 98 % 1012,0 hPa 0,0 l/m N-NO 7,2 km/h (2 Bft)
15.12.2008 18:00 -0,1 C 97 % 1012,3 hPa 0,0 l/m N 5,1 km/h (1 Bft)
15.12.2008 19:00 -0,6 C 97 % 1012,4 hPa 0,0 l/m N 5,2 km/h (1 Bft)
15.12.2008 20:00 -1,0 C 97 % 1012,7 hPa 0,0 l/m N 2,1 km/h (1 Bft)
15.12.2008 21:00 -1,0 C 98 % 1013,2 hPa 0,0 l/m N 5,1 km/h (1 Bft)
15.12.2008 22:00 -0,1 C 99 % 1013,6 hPa 0,0 l/m N-NO 7,5 km/h (2 Bft)
15.12.2008 23:00 0,3 C 99 % 1013,9 hPa 0,0 l/m N 6,3 km/h (2 Bft)
16.12.2008 00:00 0,0 C 99 % 1013,9 hPa 0,0 l/m N-NO 7,4 km/h (2 Bft)
16.12.2008 01:00 -0,3 C 99 % 1013,8 hPa 0,0 l/m NO 6,8 km/h (2 Bft)
16.12.2008 02:00 -0,6 C 99 % 1014,1 hPa 0,0 l/m N-NO 6,4 km/h (2 Bft)
16.12.2008 03:00 -0,9 C 99 % 1014,3 hPa 0,0 l/m NO 6,4 km/h (2 Bft)
16.12.2008 04:00 -1,1 C 99 % 1013,9 hPa 0,0 l/m NO 6,8 km/h (2 Bft)
16.12.2008 05:00 -1,1 C 99 % 1013,8 hPa 0,0 l/m O-NO 5,2 km/h (1 Bft)
16.12.2008 06:00 -1,3 C 99 % 1013,7 hPa 0,0 l/m NO 8,7 km/h (2 Bft)
16.12.2008 07:00 -1,6 C 99 % 1013,9 hPa 0,0 l/m NO 9,4 km/h (2 Bft)
16.12.2008 08:00 -1,7 C 99 % 1014,3 hPa 0,0 l/m NO 9,3 km/h (2 Bft)
16.12.2008 09:00 -1,3 C 99 % 1014,4 hPa 0,0 l/m O-NO 8,4 km/h (2 Bft)
16.12.2008 10:00 -0,7 C 99 % 1014,1 hPa 0,0 l/m NO 9,4 km/h (2 Bft)
16.12.2008 11:00 -0,3 C 99 % 1013,4 hPa 0,0 l/m O-NO 8,6 km/h (2 Bft)
16.12.2008 12:00 -0,3 C 98 % 1012,6 hPa 0,0 l/m O-NO 10,3 km/h (2 Bft)
16.12.2008 13:00 -0,2 C 97 % 1012,0 hPa 0,0 l/m NO 10,9 km/h (2 Bft)
16.12.2008 14:00 -0,4 C 97 % 1011,5 hPa 0,0 l/m NO 10,5 km/h (2 Bft)
16.12.2008 15:00 -0,6 C 98 % 1011,1 hPa 0,0 l/m NO 11,7 km/h (2 Bft)
16.12.2008 16:00 -0,8 C 98 % 1010,8 hPa 0,0 l/m NO 12,5 km/h (3 Bft)
16.12.2008 17:00 -0,7 C 99 % 1010,5 hPa 0,0 l/m NO 13,0 km/h (3 Bft)
16.12.2008 18:00 -0,7 C 99 % 1010,4 hPa 0,0 l/m O-NO 8,3 km/h (2 Bft)
16.12.2008 19:00 -0,7 C 99 % 1010,2 hPa 0,0 l/m O-NO 9,9 km/h (2 Bft)
16.12.2008 20:00 -0,7 C 99 % 1010,0 hPa 0,0 l/m NO 10,2 km/h (2 Bft)
16.12.2008 21:00 -0,8 C 99 % 1010,2 hPa 0,0 l/m O 8,2 km/h (2 Bft)
16.12.2008 22:00 -0,8 C 99 % 1010,2 hPa 0,0 l/m O-NO 4,9 km/h (1 Bft)
16.12.2008 23:00 -0,7 C 98 % 1009,9 hPa 0,0 l/m N-NO 3,2 km/h (1 Bft)
17.12.2008 00:00 -0,7 C 98 % 1009,9 hPa 0,0 l/m W 4,1 km/h (1 Bft)
17.12.2008 01:00 -0,7 C 98 % 1010,0 hPa 0,0 l/m W-SW 5,6 km/h (1 Bft)
17.12.2008 02:00 -0,7 C 98 % 1010,1 hPa 0,0 l/m W-SW 8,3 km/h (2 Bft)
17.12.2008 03:00 -0,8 C 98 % 1010,4 hPa 0,0 l/m SW 7,9 km/h (2 Bft)
17.12.2008 04:00 -0,7 C 98 % 1010,6 hPa 0,0 l/m SW 10,1 km/h (2 Bft)
17.12.2008 05:00 -0,7 C 97 % 1010,2 hPa 0,0 l/m W-SW 7,1 km/h (2 Bft)
17.12.2008 06:00 -0,8 C 97 % 1010,4 hPa 0,0 l/m SW 3,7 km/h (1 Bft)
17.12.2008 07:00 -0,9 C 97 % 1010,5 hPa 0,0 l/m SW 4,3 km/h (1 Bft)
17.12.2008 08:00 -0,9 C 97 % 1011,0 hPa 0,0 l/m W-SW 5,2 km/h (1 Bft)
17.12.2008 09:00 -0,6 C 96 % 1011,6 hPa 0,0 l/m W-SW 8,7 km/h (2 Bft)
17.12.2008 10:00 -0,2 C 95 % 1012,0 hPa 0,0 l/m W-SW 9,8 km/h (2 Bft)
17.12.2008 11:00 0,4 C 93 % 1012,1 hPa 0,0 l/m SW 10,5 km/h (2 Bft)
17.12.2008 12:00 0,6 C 92 % 1012,1 hPa 0,0 l/m W-SW 10,9 km/h (2 Bft)
17.12.2008 13:00 0,7 C 92 % 1012,2 hPa 0,0 l/m W-SW 10,2 km/h (2 Bft)
17.12.2008 14:00 0,7 C 91 % 1012,2 hPa 0,0 l/m W-SW 13,8 km/h (3 Bft)
17.12.2008 15:00 0,5 C 92 % 1012,7 hPa 0,0 l/m SW 10,6 km/h (2 Bft)
17.12.2008 16:00 -0,1 C 94 % 1013,3 hPa 0,0 l/m SW 10,5 km/h (2 Bft)
17.12.2008 17:00 -0,4 C 95 % 1013,8 hPa 0,0 l/m W-SW 11,2 km/h (2 Bft)
17.12.2008 18:00 -0,6 C 95 % 1014,3 hPa 0,0 l/m W-SW 11,3 km/h (2 Bft)
17.12.2008 19:00 -0,6 C 95 % 1014,7 hPa 0,0 l/m W-SW 12,6 km/h (3 Bft)
17.12.2008 20:00 -0,7 C 96 % 1015,3 hPa 0,0 l/m SW 10,9 km/h (2 Bft)
17.12.2008 21:00 -0,8 C 96 % 1015,9 hPa 0,0 l/m SW 7,8 km/h (2 Bft)
17.12.2008 22:00 -0,8 C 97 % 1016,4 hPa 0,0 l/m SW 4,9 km/h (1 Bft)
17.12.2008 23:00 -0,8 C 97 % 1016,7 hPa 0,4 l/m SW 7,4 km/h (2 Bft)
18.12.2008 00:00 -0,9 C 97 % 1017,2 hPa 0,0 l/m SW 5,5 km/h (1 Bft)
18.12.2008 01:00 -1,0 C 97 % 1017,5 hPa 0,0 l/m W-SW 8,2 km/h (2 Bft)
18.12.2008 02:00 -0,9 C 96 % 1017,8 hPa 0,0 l/m SW 5,2 km/h (1 Bft)
18.12.2008 03:00 -1,1 C 95 % 1017,9 hPa 0,0 l/m SW 5,5 km/h (1 Bft)
18.12.2008 04:00 -1,2 C 96 % 1018,4 hPa 0,0 l/m SW 8,3 km/h (2 Bft)
18.12.2008 05:00 -1,1 C 96 % 1019,2 hPa 0,2 l/m SW 7,2 km/h (2 Bft)
18.12.2008 06:00 -1,1 C 97 % 1019,9 hPa 0,6 l/m S-SW 5,6 km/h (1 Bft)
18.12.2008 07:00 -1,2 C 97 % 1020,0 hPa 0,2 l/m W 2,9 km/h (1 Bft)
18.12.2008 08:00 -1,0 C 97 % 1020,3 hPa 0,0 l/m W 2,5 km/h (1 Bft)
18.12.2008 09:00 -0,8 C 96 % 1020,6 hPa 0,0 l/m S-SW 3,7 km/h (1 Bft)
18.12.2008 10:00 -0,6 C 96 % 1021,4 hPa 0,0 l/m S-SW 7,4 km/h (2 Bft)
18.12.2008 11:00 -0,4 C 96 % 1021,6 hPa 0,4 l/m SW 6,7 km/h (2 Bft)
18.12.2008 12:00 0,4 C 95 % 1021,4 hPa 0,2 l/m SW 2,3 km/h (1 Bft)
18.12.2008 13:00 1,3 C 92 % 1021,3 hPa 0,0 l/m S-SW 4,1 km/h (1 Bft)
18.12.2008 14:00 0,9 C 94 % 1021,4 hPa 0,0 l/m SW 4,7 km/h (1 Bft)
18.12.2008 15:00 0,6 C 95 % 1022,0 hPa 0,0 l/m S-SW 6,5 km/h (2 Bft)
18.12.2008 16:00 0,1 C 96 % 1022,2 hPa 0,0 l/m SW 5,2 km/h (1 Bft)
18.12.2008 17:00 0,0 C 97 % 1022,6 hPa 0,0 l/m SW 4,3 km/h (1 Bft)
18.12.2008 18:00 -0,1 C 97 % 1023,2 hPa 0,0 l/m SW 3,9 km/h (1 Bft)
18.12.2008 19:00 -0,2 C 98 % 1023,4 hPa 0,0 l/m S-SW 6,1 km/h (2 Bft)
18.12.2008 20:00 -0,2 C 98 % 1023,4 hPa 0,0 l/m S-SW 8,6 km/h (2 Bft)
18.12.2008 21:00 -0,3 C 98 % 1023,8 hPa 0,0 l/m SW 9,4 km/h (2 Bft)
18.12.2008 22:00 -0,4 C 98 % 1023,9 hPa 0,0 l/m SW 9,3 km/h (2 Bft)
18.12.2008 23:00 -0,8 C 98 % 1024,0 hPa 0,0 l/m W-SW 8,3 km/h (2 Bft)
19.12.2008 00:00 -0,9 C 98 % 1023,8 hPa 0,0 l/m W-SW 11,5 km/h (2 Bft)
19.12.2008 01:00 -1,0 C 97 % 1023,6 hPa 0,0 l/m SW 12,1 km/h (2 Bft)
19.12.2008 02:00 -0,8 C 98 % 1023,4 hPa 0,0 l/m SW 9,5 km/h (2 Bft)
19.12.2008 03:00 -0,5 C 98 % 1023,3 hPa 0,0 l/m SW 11,4 km/h (2 Bft)
19.12.2008 04:00 -0,3 C 98 % 1023,5 hPa 0,0 l/m S-SW 12,2 km/h (2 Bft)
19.12.2008 05:00 -0,2 C 98 % 1023,5 hPa 0,0 l/m S-SW 9,5 km/h (2 Bft)
19.12.2008 06:00 0,0 C 98 % 1023,4 hPa 0,0 l/m SW 15,4 km/h (3 Bft)
19.12.2008 07:00 0,4 C 98 % 1023,6 hPa 0,4 l/m SW 19,7 km/h (3 Bft)
19.12.2008 08:00 0,7 C 96 % 1024,1 hPa 0,0 l/m SW 22,1 km/h (4 Bft)
19.12.2008 09:00 0,9 C 96 % 1024,2 hPa 0,0 l/m SW 26,4 km/h (4 Bft)
19.12.2008 10:00 1,3 C 96 % 1024,8 hPa 0,0 l/m SW 16,1 km/h (3 Bft)
19.12.2008 11:00 1,4 C 95 % 1024,9 hPa 0,0 l/m W-SW 19,8 km/h (4 Bft)
19.12.2008 12:00 1,4 C 96 % 1024,6 hPa 0,2 l/m SW 16,6 km/h (3 Bft)
19.12.2008 13:00 1,8 C 95 % 1024,4 hPa 0,0 l/m SW 16,8 km/h (3 Bft)
19.12.2008 14:00 2,1 C 95 % 1024,4 hPa 0,0 l/m SW 10,5 km/h (2 Bft)
19.12.2008 15:00 2,0 C 95 % 1024,6 hPa 0,0 l/m W 17,4 km/h (3 Bft)
19.12.2008 16:00 1,9 C 96 % 1025,4 hPa 0,0 l/m W 16,6 km/h (3 Bft)
19.12.2008 17:00 1,8 C 97 % 1026,0 hPa 0,0 l/m W 17,2 km/h (3 Bft)
19.12.2008 18:00 1,9 C 97 % 1026,8 hPa 0,0 l/m W-SW 12,6 km/h (3 Bft)
19.12.2008 19:00 2,0 C 97 % 1027,6 hPa 0,8 l/m W-NW 7,8 km/h (2 Bft)
19.12.2008 20:00 1,8 C 97 % 1028,4 hPa 0,0 l/m W 3,9 km/h (1 Bft)
19.12.2008 21:00 1,4 C 97 % 1029,0 hPa 0,0 l/m W 3,3 km/h (1 Bft)
19.12.2008 22:00 1,3 C 98 % 1029,2 hPa 0,0 l/m W-SW 7,2 km/h (2 Bft)
19.12.2008 23:00 1,4 C 97 % 1029,6 hPa 0,0 l/m W-NW 9,4 km/h (2 Bft)
20.12.2008 00:00 1,6 C 96 % 1029,7 hPa 0,0 l/m W-SW 9,5 km/h (2 Bft)
20.12.2008 01:00 1,2 C 97 % 1029,7 hPa 0,0 l/m SW 8,7 km/h (2 Bft)
20.12.2008 02:00 1,3 C 97 % 1029,8 hPa 0,0 l/m W 13,6 km/h (3 Bft)
20.12.2008 03:00 1,7 C 97 % 1029,4 hPa 0,0 l/m SW 16,2 km/h (3 Bft)
20.12.2008 04:00 1,5 C 97 % 1029,9 hPa 0,0 l/m W-SW 12,8 km/h (3 Bft)
20.12.2008 05:00 1,6 C 96 % 1030,2 hPa 0,4 l/m W 18,6 km/h (3 Bft)
20.12.2008 06:00 1,0 C 97 % 1029,8 hPa 1,2 l/m SW 12,8 km/h (3 Bft)
20.12.2008 07:00 0,7 C 98 % 1029,0 hPa 0,4 l/m SW 14,8 km/h (3 Bft)
20.12.2008 08:00 1,0 C 98 % 1028,8 hPa 0,0 l/m W-SW 22,3 km/h (4 Bft)
20.12.2008 09:00 1,2 C 97 % 1028,8 hPa 0,0 l/m S-SW 23,6 km/h (4 Bft)
20.12.2008 10:00 1,5 C 97 % 1028,6 hPa 0,0 l/m W-SW 25,6 km/h (4 Bft)
20.12.2008 11:00 2,4 C 95 % 1028,2 hPa 0,0 l/m W-SW 33,5 km/h (5 Bft)
20.12.2008 12:00 2,7 C 95 % 1028,2 hPa 0,4 l/m W-SW 30,3 km/h (5 Bft)
20.12.2008 13:00 3,1 C 93 % 1027,8 hPa 0,0 l/m SW 31,1 km/h (5 Bft)
20.12.2008 14:00 3,4 C 92 % 1027,5 hPa 0,0 l/m W-SW 33,0 km/h (5 Bft)
20.12.2008 15:00 3,5 C 92 % 1027,0 hPa 0,0 l/m W-SW 31,3 km/h (5 Bft)
20.12.2008 16:00 3,7 C 92 % 1027,3 hPa 0,0 l/m W-SW 31,8 km/h (5 Bft)
20.12.2008 17:00 3,7 C 93 % 1027,8 hPa 0,0 l/m W-SW 28,8 km/h (5 Bft)
20.12.2008 18:00 3,7 C 93 % 1028,0 hPa 0,0 l/m W 27,0 km/h (4 Bft)
20.12.2008 19:00 3,9 C 93 % 1028,0 hPa 0,0 l/m W-SW 27,5 km/h (4 Bft)
20.12.2008 20:00 4,0 C 93 % 1028,0 hPa 0,0 l/m W-SW 28,8 km/h (5 Bft)
20.12.2008 21:00 4,0 C 93 % 1028,8 hPa 0,0 l/m W-SW 24,7 km/h (4 Bft)
20.12.2008 22:00 4,2 C 94 % 1029,0 hPa 0,0 l/m W-SW 26,8 km/h (4 Bft)
20.12.2008 23:00 4,4 C 93 % 1029,1 hPa 0,0 l/m W 31,0 km/h (5 Bft)
21.12.2008 00:00 4,6 C 93 % 1029,6 hPa 0,0 l/m W-SW 24,7 km/h (4 Bft)
21.12.2008 01:00 4,5 C 95 % 1029,8 hPa 0,0 l/m W-SW 18,9 km/h (3 Bft)
21.12.2008 02:00 4,4 C 96 % 1030,4 hPa 0,2 l/m W-SW 18,4 km/h (3 Bft)
21.12.2008 03:00 4,5 C 96 % 1030,6 hPa 0,0 l/m W 19,6 km/h (3 Bft)
21.12.2008 04:00 4,7 C 96 % 1030,6 hPa 0,2 l/m W 21,3 km/h (4 Bft)
21.12.2008 05:00 4,9 C 96 % 1030,8 hPa 0,4 l/m SW 21,0 km/h (4 Bft)
21.12.2008 06:00 4,9 C 97 % 1031,4 hPa 0,2 l/m W-SW 16,6 km/h (3 Bft)
21.12.2008 07:00 4,8 C 97 % 1031,5 hPa 0,2 l/m W-SW 18,6 km/h (3 Bft)
21.12.2008 08:00 5,0 C 97 % 1031,9 hPa 0,0 l/m W-SW 12,2 km/h (2 Bft)
21.12.2008 09:00 4,9 C 97 % 1032,5 hPa 0,0 l/m SW 10,9 km/h (2 Bft)
21.12.2008 10:00 5,3 C 97 % 1032,8 hPa 0,0 l/m SW 13,0 km/h (3 Bft)
21.12.2008 11:00 6,1 C 96 % 1032,7 hPa 0,0 l/m SW 13,0 km/h (3 Bft)
21.12.2008 12:00 6,7 C 95 % 1032,4 hPa 0,0 l/m W-SW 19,6 km/h (3 Bft)
21.12.2008 13:00 6,7 C 95 % 1032,4 hPa 0,0 l/m SW 13,8 km/h (3 Bft)
21.12.2008 14:00 6,7 C 95 % 1032,4 hPa 0,0 l/m W-SW 11,9 km/h (2 Bft)
21.12.2008 15:00 6,5 C 95 % 1032,9 hPa 0,0 l/m SW 15,4 km/h (3 Bft)
21.12.2008 16:00 6,4 C 95 % 1033,5 hPa 0,0 l/m W-SW 16,6 km/h (3 Bft)
21.12.2008 17:00 6,5 C 94 % 1034,0 hPa 0,0 l/m SW 12,9 km/h (3 Bft)
21.12.2008 18:00 6,0 C 95 % 1034,3 hPa 0,0 l/m SW 12,9 km/h (3 Bft)
21.12.2008 19:00 5,7 C 96 % 1034,5 hPa 0,0 l/m W-SW 14,4 km/h (3 Bft)
21.12.2008 20:00 5,7 C 97 % 1034,8 hPa 0,0 l/m W-SW 12,4 km/h (3 Bft)
21.12.2008 21:00 5,6 C 97 % 1034,5 hPa 0,0 l/m W-SW 10,6 km/h (2 Bft)
21.12.2008 22:00 5,6 C 96 % 1034,2 hPa 0,0 l/m W-SW 11,3 km/h (2 Bft)
21.12.2008 23:00 5,4 C 96 % 1034,2 hPa 0,0 l/m W-SW 11,1 km/h (2 Bft)
Min-Datum _ 15.12.08 17.12.08 15.12.08 - - 15.12.08
_ Min-Zeit 02:15 11:50 00:00 - - 06:45
Minimum _ -2,9 C 91 % 1004,2 hPa - - 0,0 km/h (0 Bft)
Max-Datum _ 21.12.08 15.12.08 21.12.08 20.12.08 - 20.12.08
_ Max-Zeit 12:25 05:55 20:45 06:10 - 20:40
Maximum _ 6,7 C 99 % 1034,9 hPa 1,2 l/m - 40,2 km/h
W-SW (6 Bft)
Durchschnitt _ 0,9 C 96 % 1020,3 hPa #7,0 l/m W-SW 11,6 km/h (2 Bft)